Location: Via Auriletto, 13, 10098 Rivoli TO, Italia
(45.0746°N, 7.5214°E)
Time: 12:08:58
(UTC+02:00)

EO-79 - Visible Passes

Search period start: 23 May 2019 00:00
Search period end: 02 June 2019 00:00
Orbit: 592 x 610 km, 97.9° (Epoch: 22 May)

Date Brightness Start Highest point End Pass type
(mag) Time Alt. Az. Time Alt. Az. Time Alt. Az.
23 May ? 01:25:25 10° NNE 01:28:47 30° E 01:28:47 30° E visible
23 May ? 03:01:20 10° NNW 03:04:46 25° WNW 03:05:34 23° W visible
24 May ? 01:36:42 10° NNE 01:40:26 40° E 01:40:26 40° E visible
24 May ? 03:13:07 10° NNW 03:16:09 20° WNW 03:17:12 18° W visible
25 May ? 01:48:04 10° NNE 01:52:05 55° E 01:52:05 55° E visible
25 May ? 03:25:02 10° NNW 03:27:29 16° WNW 03:28:51 14° W visible
26 May ? 01:59:30 10° NNE 02:03:41 74° ESE 02:03:43 74° ESE visible
26 May ? 03:37:11 10° NW 03:38:49 12° WNW 03:40:29 10° W visible
27 May ? 02:10:58 10° NNE 02:15:09 83° WNW 02:15:22 79° SW visible
28 May ? 00:48:38 10° ENE 00:50:14 12° E 00:50:14 12° E visible
28 May ? 02:22:28 10° N 02:26:36 62° WNW 02:27:00 58° WSW visible
29 May ? 00:59:21 10° NE 01:01:51 17° E 01:01:51 17° E visible
29 May ? 02:34:01 10° N 02:38:02 46° WNW 02:38:38 43° W visible
30 May ? 01:10:22 10° NE 01:13:30 22° E 01:13:30 22° E visible
30 May ? 02:45:38 10° N 02:49:27 35° WNW 02:50:17 32° W visible
31 May ? 01:21:33 10° NE 01:25:08 28° E 01:25:08 28° E visible
31 May ? 02:57:18 10° N 03:00:51 27° WNW 03:01:55 24° W visible
01 Jun ? 01:32:48 10° NNE 01:36:43 37° E 01:36:46 37° E visible
01 Jun ? 03:09:01 10° NNW 03:12:13 22° WNW 03:13:33 19° W visible
